When you browse on this site, cookies collect data to enhance your experience and personalize the content and advertising you see.
Visit our Privacy Policy to learn more. By continuing to use the site, you agree to this use of cookies and data.

Meteo pe oră la Dzieglewo

Astăzi, 21 Septembrie, Luni

Timp Temperatura Precipitaţii Vânt Presiune Umiditate
00:00 +12°C° 0 mm 2 m/s 758 mmHg 67%
01:00 +10°C° 0 mm 2 m/s 758 mmHg 69%
02:00 +10°C° 0 mm 2 m/s 757 mmHg 71%
03:00 +10°C° 0 mm 2 m/s 757 mmHg 73%
04:00 +9°C° 0 mm 2 m/s 757 mmHg 75%
05:00 +10°C° 0 mm 2 m/s 757 mmHg 73%
06:00 +12°C° 0 mm 2 m/s 757 mmHg 72%
07:00 +13°C° 0 mm 2 m/s 758 mmHg 71%
08:00 +15°C° 0 mm 2 m/s 757 mmHg 63%
09:00 +17°C° 0 mm 2 m/s 757 mmHg 56%
10:00 +19°C° 0 mm 3 m/s 757 mmHg 49%
11:00 +21°C° 0 mm 2 m/s 757 mmHg 46%
12:00 +23°C° 0 mm 2 m/s 757 mmHg 43%
13:00 +24°C° 0 mm 2 m/s 757 mmHg 40%
14:00 +24°C° 0 mm 2 m/s 756 mmHg 42%
15:00 +24°C° 0 mm 2 m/s 756 mmHg 44%
16:00 +24°C° 0 mm 1 m/s 756 mmHg 46%
17:00 +22°C° 0 mm 1 m/s 756 mmHg 49%
18:00 +20°C° 0 mm 1 m/s 755 mmHg 53%
19:00 +18°C° 0 mm 1 m/s 755 mmHg 57%
20:00 +18°C° 0 mm 1 m/s 755 mmHg 59%
21:00 +16°C° 0 mm 2 m/s 755 mmHg 60%
22:00 +16°C° 0 mm 2 m/s 755 mmHg 62%
23:00 +15°C° 0 mm 2 m/s 755 mmHg 63%

Mâine, 22 Septembrie, Marţi

Timp Temperatura Precipitaţii Vânt Presiune Umiditate
00:00 +15°C° 0 mm 2 m/s 755 mmHg 65%
01:00 +15°C° 0 mm 2 m/s 755 mmHg 66%
02:00 +14°C° 0 mm 2 m/s 755 mmHg 68%
03:00 +14°C° 0 mm 2 m/s 755 mmHg 69%
04:00 +14°C° 0 mm 2 m/s 754 mmHg 70%
05:00 +15°C° 0 mm 2 m/s 754 mmHg 69%
06:00 +15°C° 0 mm 2 m/s 755 mmHg 67%
07:00 +16°C° 0 mm 2 m/s 755 mmHg 65%
08:00 +19°C° 0 mm 2 m/s 754 mmHg 58%
09:00 +21°C° 0 mm 3 m/s 754 mmHg 51%
10:00 +24°C° 0 mm 3 m/s 754 mmHg 44%
11:00 +26°C° 0 mm 3 m/s 754 mmHg 41%
12:00 +27°C° 0 mm 3 m/s 753 mmHg 39%
13:00 +28°C° 0 mm 3 m/s 753 mmHg 36%
14:00 +27°C° 0 mm 3 m/s 753 mmHg 39%
15:00 +27°C° 0 mm 3 m/s 752 mmHg 42%
16:00 +27°C° 0 mm 2 m/s 752 mmHg 45%
17:00 +25°C° 0 mm 3 m/s 751 mmHg 48%
18:00 +22°C° 0 mm 3 m/s 751 mmHg 52%
19:00 +20°C° 0 mm 3 m/s 751 mmHg 56%
20:00 +19°C° 0 mm 3 m/s 751 mmHg 56%
21:00 +19°C° 0 mm 3 m/s 751 mmHg 57%
22:00 +18°C° 0 mm 3 m/s 751 mmHg 57%
23:00 +18°C° 0 mm 3 m/s 751 mmHg 57%

Poimâine, 23 Septembrie, Miercuri

Timp Temperatura Precipitaţii Vânt Presiune Umiditate
00:00 +17°C° 0 mm 2 m/s 750 mmHg 57%
01:00 +17°C° 0 mm 2 m/s 750 mmHg 58%
02:00 +17°C° 0 mm 2 m/s 750 mmHg 58%
03:00 +17°C° 0 mm 2 m/s 750 mmHg 59%
04:00 +16°C° 0 mm 2 m/s 749 mmHg 60%
05:00 +17°C° 0 mm 2 m/s 749 mmHg 60%
06:00 +17°C° 0 mm 2 m/s 749 mmHg 60%
07:00 +18°C° 0 mm 2 m/s 749 mmHg 61%
08:00 +20°C° 0 mm 3 m/s 749 mmHg 55%
09:00 +22°C° 0 mm 3 m/s 749 mmHg 49%
10:00 +26°C° 0 mm 3 m/s 749 mmHg 43%
11:00 +27°C° 0 mm 3 m/s 749 mmHg 40%
12:00 +28°C° 0 mm 3 m/s 748 mmHg 38%
13:00 +29°C° 0 mm 3 m/s 748 mmHg 35%
14:00 +29°C° 0 mm 3 m/s 748 mmHg 38%
15:00 +29°C° 0 mm 2 m/s 748 mmHg 41%
16:00 +28°C° 0 mm 1 m/s 747 mmHg 43%
17:00 +26°C° 0 mm 2 m/s 748 mmHg 47%
18:00 +24°C° 0 mm 2 m/s 748 mmHg 51%
19:00 +21°C° 0 mm 2 m/s 748 mmHg 55%
20:00 +21°C° 0 mm 2 m/s 748 mmHg 58%
21:00 +20°C° 0 mm 2 m/s 748 mmHg 61%
22:00 +19°C° 0 mm 2 m/s 748 mmHg 65%
23:00 +20°C° 0 mm 1 m/s 748 mmHg 66%

24 Septembrie, Joi

Timp Temperatura Precipitaţii Vânt Presiune Umiditate
00:00 +20°C° 0 mm 1 m/s 748 mmHg 68%
01:00 +20°C° 0 mm 1 m/s 748 mmHg 69%
02:00 +20°C° 0 mm 1 m/s 748 mmHg 71%
03:00 +18°C° 0 mm 2 m/s 748 mmHg 73%
04:00 +18°C° 0 mm 2 m/s 748 mmHg 75%
05:00 +18°C° 0 mm 2 m/s 748 mmHg 75%
06:00 +19°C° 0 mm 3 m/s 748 mmHg 75%
07:00 +19°C° 0 mm 3 m/s 748 mmHg 75%
08:00 +21°C° 0 mm 4 m/s 748 mmHg 70%
09:00 +22°C° 0 mm 4 m/s 749 mmHg 65%
10:00 +25°C° 0 mm 4 m/s 749 mmHg 60%
11:00 +26°C° 0.1 mm 4 m/s 749 mmHg 57%
12:00 +26°C° 0.1 mm 4 m/s 749 mmHg 55%
13:00 +27°C° 0.1 mm 4 m/s 749 mmHg 53%
14:00 +27°C° 0.2 mm 3 m/s 749 mmHg 54%
15:00 +26°C° 0.2 mm 3 m/s 749 mmHg 55%
16:00 +26°C° 0.2 mm 2 m/s 749 mmHg 56%
17:00 +25°C° 0 mm 2 m/s 749 mmHg 60%
18:00 +23°C° 0 mm 1 m/s 749 mmHg 64%
19:00 +21°C° 0 mm 1 m/s 749 mmHg 69%
20:00 +21°C° 0 mm 1 m/s 750 mmHg 69%
21:00 +21°C° 0 mm 1 m/s 750 mmHg 70%
22:00 +20°C° 0 mm 2 m/s 750 mmHg 70%
23:00 +19°C° 0 mm 2 m/s 750 mmHg 71%

25 Septembrie, Vineri

Timp Temperatura Precipitaţii Vânt Presiune Umiditate
00:00 +19°C° 0 mm 2 m/s 749 mmHg 73%
01:00 +18°C° 0 mm 2 m/s 749 mmHg 74%
02:00 +18°C° 0 mm 2 m/s 749 mmHg 77%
03:00 +18°C° 0 mm 3 m/s 749 mmHg 80%
04:00 +17°C° 0 mm 3 m/s 748 mmHg 83%
05:00 +18°C° 0 mm 3 m/s 748 mmHg 81%
06:00 +18°C° 0 mm 4 m/s 748 mmHg 80%
07:00 +19°C° 0 mm 4 m/s 747 mmHg 78%
08:00 +20°C° 0 mm 5 m/s 747 mmHg 72%
09:00 +22°C° 0 mm 5 m/s 746 mmHg 65%
10:00 +24°C° 0 mm 6 m/s 746 mmHg 59%
11:00 +26°C° 0 mm 6 m/s 745 mmHg 55%
12:00 +27°C° 0 mm 6 m/s 745 mmHg 50%
13:00 +28°C° 0 mm 6 m/s 744 mmHg 46%
14:00 +27°C° 0 mm 5 m/s 744 mmHg 48%
15:00 +27°C° 0 mm 4 m/s 743 mmHg 50%
16:00 +26°C° 0 mm 4 m/s 743 mmHg 52%
17:00 +25°C° 0.5 mm 3 m/s 743 mmHg 61%
18:00 +22°C° 0.5 mm 3 m/s 742 mmHg 69%
19:00 +20°C° 0.5 mm 3 m/s 742 mmHg 77%
20:00 +20°C° 0.1 mm 4 m/s 742 mmHg 76%
21:00 +20°C° 0.1 mm 4 m/s 742 mmHg 76%
22:00 +20°C° 0.1 mm 5 m/s 741 mmHg 75%
23:00 +20°C° 0.2 mm 5 m/s 741 mmHg 76%

26 Septembrie, Sâmbătă

Timp Temperatura Precipitaţii Vânt Presiune Umiditate
00:00 +20°C° 0.2 mm 5 m/s 741 mmHg 77%
01:00 +20°C° 0.2 mm 5 m/s 740 mmHg 78%
02:00 +20°C° 0.1 mm 5 m/s 740 mmHg 78%
03:00 +19°C° 0.1 mm 5 m/s 740 mmHg 79%
04:00 +19°C° 0.1 mm 4 m/s 739 mmHg 80%
05:00 +19°C° 0.2 mm 4 m/s 739 mmHg 82%
06:00 +18°C° 0.2 mm 3 m/s 739 mmHg 85%
07:00 +17°C° 0.2 mm 3 m/s 739 mmHg 88%
08:00 +17°C° 0.4 mm 3 m/s 740 mmHg 88%
09:00 +16°C° 0.4 mm 3 m/s 740 mmHg 89%
10:00 +15°C° 0.4 mm 4 m/s 740 mmHg 90%
11:00 +15°C° 0.1 mm 4 m/s 741 mmHg 86%
12:00 +17°C° 0.1 mm 4 m/s 741 mmHg 82%
13:00 +17°C° 0.1 mm 4 m/s 742 mmHg 78%
14:00 +17°C° 0 mm 4 m/s 742 mmHg 79%
15:00 +17°C° 0 mm 4 m/s 742 mmHg 80%
16:00 +16°C° 0 mm 3 m/s 743 mmHg 82%
17:00 +14°C° 0 mm 3 m/s 743 mmHg 85%
18:00 +14°C° 0 mm 3 m/s 743 mmHg 88%
19:00 +13°C° 0 mm 3 m/s 743 mmHg 90%
20:00 +13°C° 0.4 mm 3 m/s 742 mmHg 90%
21:00 +14°C° 0.4 mm 4 m/s 741 mmHg 90%
22:00 +14°C° 0.4 mm 5 m/s 741 mmHg 90%
23:00 +15°C° 0.8 mm 5 m/s 740 mmHg 91%
Arată mai mult